Weather History for Toledo, OH

Change the Weather History Date:

Tuesday, December 31, 2013

  Actual Average Record
Temperature  
Mean Temperature 17 °F 26 °F  
Max Temperature 20 °F 33 °F 66 °F (1875)
Min Temperature 14 °F 20 °F -9 °F (1963)
Degree Days  
Heating Degree Days 48 39  
Month to date heating degree days 1151 1092  
Since 1 July heating degree days 2499 2325  
Cooling Degree Days 0 0  
Month to date cooling degree days 0 0  
Year to date cooling degree days 793 793  
Moisture  
Dew Point 10 °F    
Average Humidity 73    
Maximum Humidity 84    
Minimum Humidity 61    
Precipitation  
Precipitation 0.05 in 0.08 in 1.54 in (2006)
Month to date precipitation 3.07 2.68  
Year to date precipitation 36.83 34.24  
Snow  
Snow 0.80 in 0.30 in - ()
Month to date snowfall 11.2 7.4  
Since 1 July snowfall 11.7 9.5  
Snow Depth T in    
Sea Level Pressure  
Sea Level Pressure 30.22 in    
Wind  
Wind Speed 13 mph (WSW)    
Max Wind Speed 25 mph    
Max Gust Speed 30 mph    
Visibility 8 miles    
Events Snow    
T = Trace of Precipitation, MM = Missing Value Source: NWS Daily Summary

Daily Weather History Graph

Daily Weather History Graph

Search for Another Location

Airport:

Trip Planner

Search our weather history database for the weather conditions in past years. The results will help you decide how hot, cold, wet, or windy it might be!

Date:

Astronomy

Dec. 31, 2013 Rise Set
Actual Time 8:01 AM EST 5:15 PM EST
Civil Twilight 7:30 AM EST 5:46 PM EST
Nautical Twilight 6:55 AM EST 6:21 PM EST
Astronomical Twilight 6:21 AM EST 6:55 PM EST
Moon 6:53 AM EST (12/31) 4:50 PM EST (12/31)
Length of Visible Light 10h 15m
Length of Day
9h 13m
Waning Crescent, 1% of the Moon is Illuminated
Dec 31
Waning Crescent
Jan 1
New
Jan 7
First Quarter
Jan 15
Full
Jan 24
Last Quarter

Hourly Weather History & Observations

Time (EST) Temp. Windchill Dew Point Humidity Pressure Visibility Wind Dir Wind Speed Gust Speed Precip Events Conditions
12:52 AM 19.0 °F 7.5 °F 12.9 °F 77% 30.14 in 9.0 mi SW 10.4 mph - 0.00 in   Overcast
1:16 AM 19.4 °F 7.9 °F 15.8 °F 86% 30.10 in 3.0 mi WSW 10.4 mph - 0.00 in Snow Light Snow
1:40 AM 19.4 °F 7.9 °F 15.8 °F 86% 30.10 in 2.0 mi WSW 10.4 mph - 0.00 in Snow Light Snow
1:52 AM 18.0 °F 3.6 °F 14.0 °F 84% 30.13 in 4.0 mi WSW 15.0 mph 24.2 mph 0.01 in Snow Light Snow
2:27 AM 17.6 °F 6.4 °F 15.8 °F 93% 30.10 in 3.0 mi WSW 9.2 mph - 0.00 in Snow Light Snow
2:36 AM 17.6 °F 5.7 °F 14.0 °F 86% 30.09 in 2.5 mi WSW 10.4 mph - 0.00 in Snow Light Snow
2:48 AM 17.6 °F 4.3 °F 14.0 °F 86% 30.09 in 2.0 mi West 12.7 mph - 0.00 in Snow Light Snow
2:52 AM 18.0 °F 3.6 °F 14.0 °F 84% 30.13 in 3.0 mi WSW 15.0 mph 23.0 mph 0.00 in Snow Light Snow
3:22 AM 17.6 °F 2.7 °F 12.2 °F 79% 30.09 in 5.0 mi West 16.1 mph 20.7 mph 0.01 in Snow Light Snow
3:52 AM 17.1 °F 3.0 °F 12.0 °F 81% 30.13 in 5.0 mi West 13.8 mph - 0.01 in Snow Light Snow
4:52 AM 15.1 °F 0.5 °F 10.0 °F 80% 30.12 in 7.0 mi West 13.8 mph - 0.00 in Snow Light Snow
5:52 AM 15.1 °F -0.6 °F 10.0 °F 80% 30.14 in 10.0 mi West 16.1 mph - 0.00 in   Overcast
6:52 AM 15.1 °F 1.1 °F 9.0 °F 77% 30.16 in 10.0 mi West 12.7 mph - 0.00 in   Overcast
7:19 AM 14.0 °F -2.0 °F 8.6 °F 79% 30.13 in 10.0 mi West 16.1 mph - N/A   Overcast
7:31 AM 15.8 °F 0.9 °F 8.6 °F 73% 30.14 in 10.0 mi West 15.0 mph - N/A   Overcast
7:52 AM 15.1 °F 0.5 °F 8.1 °F 74% 30.18 in 10.0 mi West 13.8 mph - N/A   Overcast
8:52 AM 16.0 °F 0.1 °F 9.0 °F 74% 30.22 in 10.0 mi West 17.3 mph 23.0 mph 0.00 in Snow Light Snow
9:23 AM 15.8 °F 1.4 °F 8.6 °F 73% 30.19 in 9.0 mi West 13.8 mph - 0.00 in Snow Light Snow
9:52 AM 16.0 °F 1.1 °F 10.0 °F 77% 30.25 in 10.0 mi WSW 15.0 mph - 0.00 in   Overcast
10:50 AM 17.6 °F 3.2 °F 8.6 °F 68% 30.24 in 10.0 mi WSW 15.0 mph - N/A   Overcast
10:52 AM 17.1 °F 2.5 °F 9.0 °F 71% 30.28 in 10.0 mi WSW 15.0 mph - N/A   Overcast
11:25 AM 17.6 °F 0.9 °F 10.4 °F 73% 30.25 in 10.0 mi WSW 20.7 mph 26.5 mph N/A   Overcast
11:52 AM 18.0 °F 2.2 °F 10.0 °F 71% 30.30 in 10.0 mi SW 18.4 mph 28.8 mph N/A   Overcast
12:22 PM 17.6 °F 0.9 °F 8.6 °F 68% 30.27 in 10.0 mi WSW 20.7 mph 26.5 mph N/A   Overcast
12:52 PM 18.0 °F 1.3 °F 9.0 °F 68% 30.32 in 10.0 mi WSW 20.7 mph 29.9 mph 0.00 in   Overcast
1:52 PM 18.0 °F 2.2 °F 8.1 °F 65% 30.31 in 10.0 mi WSW 18.4 mph - N/A   Overcast
2:26 PM 17.6 °F 1.3 °F 6.8 °F 63% 30.25 in 10.0 mi West 19.6 mph - N/A   Mostly Cloudy
2:52 PM 17.1 °F 2.0 °F 7.0 °F 65% 30.29 in 10.0 mi West 16.1 mph - N/A   Overcast
3:52 PM 18.0 °F 4.8 °F 7.0 °F 62% 30.30 in 10.0 mi WSW 12.7 mph - N/A   Clear
4:52 PM 17.1 °F 2.5 °F 7.0 °F 65% 30.31 in 10.0 mi WSW 15.0 mph - N/A   Overcast
5:52 PM 17.1 °F 4.3 °F 7.0 °F 65% 30.32 in 10.0 mi WSW 11.5 mph - N/A   Overcast
6:52 PM 17.1 °F 5.8 °F 8.1 °F 68% 30.32 in 10.0 mi WSW 9.2 mph - N/A   Overcast
7:52 PM 17.1 °F 5.8 °F 10.0 °F 74% 30.33 in 10.0 mi WSW 9.2 mph - N/A   Overcast
8:52 PM 16.0 °F 7.4 °F 12.0 °F 84% 30.34 in 5.0 mi SW 5.8 mph - 0.00 in Snow Light Snow
9:52 PM 17.1 °F 8.7 °F 12.9 °F 84% 30.34 in 4.0 mi West 5.8 mph - 0.00 in Snow Light Snow
10:48 PM 17.6 °F 7.3 °F 12.2 °F 79% 30.31 in 3.0 mi West 8.1 mph - 0.01 in Snow Light Snow
10:52 PM 17.1 °F 6.6 °F 12.9 °F 84% 30.35 in 3.0 mi WNW 8.1 mph - 0.01 in Snow Light Snow
11:52 PM 16.0 °F 7.4 °F 12.9 °F 88% 30.36 in 4.0 mi WNW 5.8 mph - 0.01 in Snow Light Snow